Date String (YYYY-MM-DD hh:mm:ss) UTC,Instrument flags,absolute air pressure of the measurement (hPa),sample flow rate (lpm),inlet stack bypass flow (lpm),air temperature of the measurement (°C),ambient temperature measured by the external sensor (°C),aerosol sample conditioner tube jacket temperature (°C),OPC LED temperature (°C),internal box temperature (°C),relative humidity of the measurement (%),span deviation,mass concentration of particles derived from Lorenz-Mie calculation of OPC scattering (μg/m³),mass concentration of particles derived from Lorenz-Mie calculation of OPC scattering (μg/m³),mass concentration of particles derived from Lorenz-Mie calculation of OPC scattering (μg/m³)
DateTimeUTC,F1_M11,P_M11,Q1_M11,Q2_M11,T1_M11,T2_M11,T3_M11,T4_M11,T5_M11,U1_M11,ZSPAN_M11,X0_M11,X2_M11,X1_M11
2023-09-27 05:00:00,SystemResetWarning,0833.7,5.01,000.00,028.3,027.1,000.0,036.8,030.1,15.4,0002.5,0022.14,0006.05,0004.44
2023-09-27 05:01:00,SystemResetWarning,0833.7,5.00,000.00,028.4,027.1,000.0,036.8,030.2,15.4,0002.3,0022.47,0006.09,0004.45
2023-09-27 05:02:00,SystemResetWarning,0833.7,4.99,000.00,028.4,027.2,000.0,036.8,030.2,15.4,0002.2,0020.93,0006.10,0004.46
2023-09-27 05:03:00,SystemResetWarning,0833.7,5.00,000.00,028.4,027.2,000.0,036.8,030.2,15.2,0002.3,0020.27,0006.11,0004.46
2023-09-27 05:04:00,SystemResetWarning,0833.7,5.00,000.00,028.4,027.3,000.0,036.8,030.3,15.2,0002.5,0021.59,0006.12,0004.45
2023-09-27 05:05:00,SystemResetWarning,0833.7,5.00,000.00,028.5,027.3,000.0,036.9,030.3,15.2,0002.6,0022.71,0006.17,0004.45
2023-09-27 05:06:00,SystemResetWarning,0833.6,5.00,000.00,028.5,027.4,000.0,036.9,030.3,15.2,0002.0,0022.79,0006.13,0004.45
2023-09-27 05:07:00,SystemResetWarning,0833.7,5.00,000.00,028.5,027.4,000.0,036.9,030.4,15.2,0002.1,0023.22,0006.15,0004.44
2023-09-27 05:08:00,SystemResetWarning,0833.7,5.00,000.00,028.6,027.4,000.0,036.9,030.4,15.1,0002.5,0022.75,0006.20,0004.44
2023-09-27 05:09:00,SystemResetWarning,0833.7,5.00,000.00,028.6,027.5,000.0,036.9,030.4,15.1,0002.6,0022.82,0006.16,0004.44
2023-09-27 05:10:00,SystemResetWarning,0833.7,4.99,000.00,028.6,027.5,000.0,037.0,030.4,15.1,0002.5,0022.62,0006.14,0004.43
2023-09-27 05:11:00,SystemResetWarning,0833.7,5.00,000.00,028.6,027.5,000.0,037.0,030.5,15.1,0002.4,0022.91,0006.06,0004.44
2023-09-27 05:12:00,SystemResetWarning,0833.7,5.00,000.00,028.6,026.6,000.0,037.0,030.4,15.0,0002.3,0022.82,0006.02,0004.43
2023-09-27 05:13:00,SystemResetWarning,0833.6,5.00,000.00,028.6,024.8,000.0,036.9,030.2,15.0,0002.9,0023.06,0006.02,0004.43
2023-09-27 05:14:00,SystemResetWarning,0833.6,5.00,000.00,028.5,024.4,000.0,036.9,030.0,15.1,0003.5,0022.84,0006.09,0004.46
2023-09-27 05:15:00,SystemResetWarning,0833.6,5.01,000.00,028.4,024.6,000.0,036.9,029.8,15.3,0003.6,0021.62,0006.13,0004.49
2023-09-27 05:16:00,SystemResetWarning,0833.5,5.00,000.00,028.3,024.9,000.0,036.9,029.8,15.4,0003.9,0020.90,0006.07,0004.52
2023-09-27 05:17:00,SystemResetWarning,0833.6,5.00,000.00,028.3,025.3,000.0,036.9,029.9,15.4,0004.2,0019.88,0006.10,0004.55
2023-09-27 05:18:00,SystemResetWarning,0833.6,5.00,000.00,028.2,025.7,000.0,036.9,029.9,15.4,0004.0,0020.04,0006.10,0004.58
2023-09-27 05:19:00,SystemResetWarning,0833.6,5.00,000.00,028.2,026.0,000.0,036.8,029.9,15.4,0000.3,0019.48,0006.01,0004.58
2023-09-27 05:20:00,SystemResetWarning,0833.6,5.00,000.00,028.2,026.2,000.0,036.8,030.0,15.4,0000.0,0018.88,0005.98,0004.59
2023-09-27 05:21:00,SystemResetWarning,0833.6,5.00,000.00,028.3,026.4,000.0,036.8,030.0,15.4,0000.0,0018.22,0006.03,0004.61
2023-09-27 05:22:00,SystemResetWarning,0833.6,5.01,000.00,028.3,026.6,000.0,036.8,030.0,15.2,0000.0,0017.41,0006.09,0004.62
2023-09-27 05:23:00,SystemResetWarning,0833.6,5.01,000.00,028.3,026.7,000.0,036.8,030.1,15.3,0000.0,0016.64,0006.12,0004.65
2023-09-27 05:24:00,SystemResetWarning,0833.6,4.99,000.00,028.3,026.8,000.0,036.8,030.1,15.2,0001.5,0016.16,0006.09,0004.67
2023-09-27 05:25:00,SystemResetWarning,0833.6,5.00,000.00,028.3,026.9,000.0,036.8,030.1,15.2,0000.2,0015.61,0006.04,0004.68
2023-09-27 05:26:00,SystemResetWarning,0833.6,5.00,000.00,028.4,027.0,000.0,036.8,030.2,15.1,0000.0,0015.57,0006.01,0004.69
2023-09-27 05:27:00,SystemResetWarning,0833.6,5.00,000.00,028.4,027.1,000.0,036.9,030.2,15.0,0000.0,0015.04,0006.00,0004.69
2023-09-27 05:28:00,SystemResetWarning,0833.6,5.00,000.00,028.4,027.2,000.0,036.9,030.2,15.0,0000.0,0015.15,0006.02,0004.68
2023-09-27 05:29:00,SystemResetWarning,0833.6,5.00,000.00,028.4,027.2,000.0,036.9,030.2,15.0,0000.0,0015.19,0005.96,0004.68
2023-09-27 05:30:00,SystemResetWarning,0833.6,4.99,000.00,028.5,027.3,000.0,036.9,030.3,14.9,0000.0,0015.23,0006.00,0004.70
2023-09-27 05:31:00,SystemResetWarning,0833.6,5.00,000.00,028.5,027.3,000.0,036.9,030.3,14.8,0000.0,0015.37,0006.07,0004.72
2023-09-27 05:32:00,SystemResetWarning,0833.7,5.00,000.00,028.5,027.4,000.0,036.9,030.3,14.7,0000.0,0016.03,0006.04,0004.73
2023-09-27 05:33:00,SystemResetWarning,0833.7,4.99,000.00,028.6,027.4,000.0,036.9,030.4,14.8,0000.0,0016.91,0006.03,0004.74
2023-09-27 05:34:00,SystemResetWarning,0833.7,5.00,000.00,028.6,027.5,000.0,037.0,030.4,14.8,0000.7,0016.76,0006.02,0004.75
2023-09-27 05:35:00,SystemResetWarning,0833.7,5.00,000.00,028.6,027.5,000.0,037.0,030.4,14.7,0000.0,0017.42,0006.09,0004.76
2023-09-27 05:36:00,SystemResetWarning,0833.7,5.01,000.00,028.6,027.6,000.0,037.0,030.4,15.0,0000.0,0017.90,0006.17,0004.78
2023-09-27 05:37:00,SystemResetWarning,0833.7,5.00,000.00,028.7,027.5,000.0,037.0,030.5,16.0,0000.0,0017.43,0006.14,0004.79
2023-09-27 05:38:00,SystemResetWarning,0833.7,4.98,000.00,028.7,025.7,000.0,037.0,030.3,16.5,0000.0,0017.31,0006.15,0004.80
2023-09-27 05:39:00,SystemResetWarning,0833.7,5.02,000.00,028.6,024.5,000.0,036.9,030.2,16.3,0000.0,0017.82,0006.12,0004.79
2023-09-27 05:40:00,SystemResetWarning,0833.7,5.01,000.00,028.5,024.4,000.0,036.9,029.9,16.3,0000.0,0018.06,0006.16,0004.79
2023-09-27 05:41:00,SystemResetWarning,0833.7,4.99,000.00,028.4,024.7,000.0,036.9,029.8,16.3,0000.0,0018.42,0006.14,0004.80
2023-09-27 05:42:00,SystemResetWarning,0833.7,4.99,000.00,028.3,025.1,000.0,036.9,029.8,16.4,0000.0,0018.36,0006.09,0004.80
2023-09-27 05:43:00,SystemResetWarning,0833.7,5.00,000.00,028.3,025.5,000.0,036.9,029.8,16.7,0000.0,0017.93,0006.11,0004.79
2023-09-27 05:44:00,SystemResetWarning,0833.6,5.02,000.00,028.3,025.8,000.0,036.9,029.9,17.1,0000.0,0016.94,0006.04,0004.78
2023-09-27 05:45:00,SystemResetWarning,0833.6,5.00,000.00,028.3,026.1,000.0,036.8,029.9,17.2,0000.0,0016.74,0006.04,0004.77
2023-09-27 05:46:00,SystemResetWarning,0833.6,4.99,000.00,028.3,026.3,000.0,036.8,030.0,17.4,0000.0,0017.39,0006.02,0004.77
2023-09-27 05:47:00,SystemResetWarning,0833.6,5.00,000.00,028.3,026.5,000.0,036.8,030.0,17.4,0000.0,0016.96,0005.98,0004.75
2023-09-27 05:48:00,SystemResetWarning,0833.5,5.00,000.00,028.3,026.7,000.0,036.8,030.0,17.2,0000.0,0016.94,0005.97,0004.72
2023-09-27 05:49:00,SystemResetWarning,0833.5,5.00,000.00,028.3,026.8,000.0,036.8,030.1,16.7,0000.0,0017.38,0006.02,0004.72
2023-09-27 05:50:00,SystemResetWarning,0833.5,5.00,000.00,028.4,026.9,000.0,036.8,030.1,16.2,0000.0,0017.22,0006.03,0004.71
2023-09-27 05:51:00,SystemResetWarning,0833.5,5.01,000.00,028.4,027.1,000.0,036.8,030.2,15.6,0001.1,0016.27,0006.06,0004.71
2023-09-27 05:52:00,SystemResetWarning,0833.5,5.01,000.00,028.4,027.1,000.0,036.9,030.2,15.7,0002.8,0016.24,0006.08,0004.71
2023-09-27 05:53:00,SystemResetWarning,0833.4,5.00,000.00,028.4,027.2,000.0,036.9,030.2,15.6,0003.5,0016.15,0006.13,0004.71
2023-09-27 05:54:00,SystemResetWarning,0833.5,4.99,000.00,028.5,027.3,000.0,036.9,030.3,15.5,0003.5,0015.58,0006.11,0004.73
2023-09-27 05:55:00,SystemResetWarning,0833.5,5.00,000.00,028.5,027.3,000.0,036.9,030.3,15.5,0003.3,0015.67,0006.14,0004.72
2023-09-27 05:56:00,SystemResetWarning,0833.5,5.00,000.00,028.5,027.4,000.0,036.9,030.3,15.4,0002.8,0016.02,0006.13,0004.73
2023-09-27 05:57:00,SystemResetWarning,0833.5,5.00,000.00,028.6,027.4,000.0,036.9,030.3,15.2,0002.6,0016.13,0006.14,0004.72
2023-09-27 05:58:00,SystemResetWarning,0833.5,5.00,000.00,028.6,027.5,000.0,036.9,030.4,15.1,0002.8,0017.16,0006.15,0004.72
2023-09-27 05:59:00,SystemResetWarning,0833.5,4.99,000.00,028.6,027.5,000.0,037.0,030.4,14.9,0002.1,0017.26,0006.19,0004.73
